TimeMDT,TemperatureF,Dew PointF,Humidity,Sea Level PressureIn,VisibilityMPH,Wind Direction,Wind SpeedMPH,Gust SpeedMPH,PrecipitationIn,Events,Conditions,WindDirDegrees,DateUTC
12:35 AM,55.4,26.6,33,29.84,10.0,West,13.8,23.0,N/A,,Clear,270,2013-06-20 06:35:00
12:55 AM,55.4,26.6,33,29.86,10.0,WNW,10.4,17.3,N/A,,Clear,300,2013-06-20 06:55:00
1:35 AM,55.4,26.6,33,29.86,10.0,West,15.0,25.3,N/A,,Clear,270,2013-06-20 07:35:00
1:55 AM,55.4,24.8,31,29.86,10.0,West,11.5,18.4,N/A,,Clear,270,2013-06-20 07:55:00
2:15 AM,53.6,24.8,33,29.88,10.0,West,11.5,18.4,N/A,,Clear,270,2013-06-20 08:15:00
2:35 AM,53.6,24.8,33,29.88,10.0,West,8.1,-,N/A,,Clear,270,2013-06-20 08:35:00
2:55 AM,53.6,24.8,33,29.87,10.0,WNW,10.4,16.1,N/A,,Clear,290,2013-06-20 08:55:00
3:15 AM,51.8,24.8,35,29.88,10.0,WNW,8.1,18.4,N/A,,Clear,290,2013-06-20 09:15:00
3:35 AM,51.8,24.8,35,29.88,10.0,West,12.7,18.4,N/A,,Clear,270,2013-06-20 09:35:00
3:55 AM,51.8,24.8,35,29.88,10.0,West,12.7,19.6,N/A,,Clear,270,2013-06-20 09:55:00
4:15 AM,51.8,24.8,35,29.89,10.0,West,9.2,23.0,N/A,,Clear,270,2013-06-20 10:15:00
4:35 AM,51.8,24.8,35,29.90,10.0,West,6.9,-,N/A,,Clear,260,2013-06-20 10:35:00
4:55 AM,51.8,24.8,35,29.91,10.0,West,8.1,-,N/A,,Clear,270,2013-06-20 10:55:00
5:15 AM,51.8,23.0,33,29.91,10.0,WNW,10.4,17.3,N/A,,Clear,300,2013-06-20 11:15:00
5:35 AM,50.0,24.8,37,29.91,10.0,WNW,10.4,17.3,N/A,,Clear,290,2013-06-20 11:35:00
5:55 AM,50.0,24.8,37,29.90,10.0,West,15.0,19.6,N/A,,Clear,280,2013-06-20 11:55:00
6:15 AM,50.0,24.8,37,29.91,10.0,West,12.7,21.9,N/A,,Clear,270,2013-06-20 12:15:00
6:35 AM,51.8,24.8,35,29.91,10.0,West,13.8,23.0,N/A,,Clear,270,2013-06-20 12:35:00
6:55 AM,51.8,26.6,38,29.91,10.0,West,17.3,25.3,N/A,,Clear,280,2013-06-20 12:55:00
7:35 AM,53.6,24.8,33,29.92,10.0,WNW,11.5,24.2,N/A,,Clear,290,2013-06-20 13:35:00
7:55 AM,53.6,24.8,33,29.93,10.0,West,11.5,23.0,N/A,,Clear,270,2013-06-20 13:55:00
8:15 AM,55.4,24.8,31,29.93,10.0,West,8.1,20.7,N/A,,Clear,270,2013-06-20 14:15:00
8:35 AM,55.4,24.8,31,29.94,10.0,West,10.4,-,N/A,,Clear,270,2013-06-20 14:35:00
9:15 AM,57.2,23.0,27,29.95,10.0,NW,6.9,-,N/A,,Clear,320,2013-06-20 15:15:00
9:35 AM,59.0,24.8,27,29.95,10.0,WNW,10.4,-,N/A,,Clear,290,2013-06-20 15:35:00
9:55 AM,60.8,23.0,23,29.95,10.0,WSW,8.1,-,N/A,,Clear,250,2013-06-20 15:55:00
10:15 AM,62.6,19.4,19,29.94,10.0,SW,9.2,-,N/A,,Clear,230,2013-06-20 16:15:00
10:35 AM,64.4,19.4,18,29.94,10.0,South,10.4,-,N/A,,Clear,190,2013-06-20 16:35:00
10:55 AM,62.6,17.6,18,29.93,10.0,South,5.8,-,N/A,,Clear,180,2013-06-20 16:55:00
11:15 AM,66.2,19.4,17,29.93,10.0,SSW,10.4,-,N/A,,Clear,210,2013-06-20 17:15:00
11:35 AM,66.2,17.6,15,29.93,10.0,SW,10.4,16.1,N/A,,Clear,220,2013-06-20 17:35:00
11:55 AM,66.2,17.6,15,29.93,10.0,SW,6.9,20.7,N/A,,Clear,220,2013-06-20 17:55:00
12:15 PM,66.2,21.2,18,29.92,10.0,Calm,Calm,-,N/A,,Clear,0,2013-06-20 18:15:00
12:35 PM,66.2,21.2,18,29.92,10.0,NNE,3.5,-,N/A,,Clear,30,2013-06-20 18:35:00
12:55 PM,66.2,19.4,17,29.91,10.0,Calm,Calm,-,N/A,,Clear,0,2013-06-20 18:55:00
1:55 PM,69.8,19.4,15,29.91,10.0,Calm,Calm,-,N/A,,Clear,0,2013-06-20 19:55:00
2:15 PM,69.8,19.4,15,29.91,10.0,South,9.2,-,N/A,,Clear,180,2013-06-20 20:15:00
2:35 PM,69.8,19.4,15,29.91,10.0,SE,4.6,-,N/A,,Clear,140,2013-06-20 20:35:00
2:55 PM,69.8,21.2,16,29.91,10.0,ENE,4.6,-,N/A,,Clear,60,2013-06-20 20:55:00
3:15 PM,69.8,24.8,18,29.90,10.0,ESE,9.2,-,N/A,,Clear,120,2013-06-20 21:15:00
3:35 PM,69.8,19.4,15,29.90,10.0,Calm,Calm,-,N/A,,Clear,0,2013-06-20 21:35:00
3:55 PM,71.6,19.4,14,29.89,10.0,East,5.8,-,N/A,,Clear,90,2013-06-20 21:55:00
4:15 PM,71.6,24.8,17,29.90,10.0,SW,3.5,-,N/A,,Clear,230,2013-06-20 22:15:00
4:35 PM,69.8,30.2,23,29.90,10.0,NNW,9.2,-,N/A,,Clear,340,2013-06-20 22:35:00
4:55 PM,68.0,32.0,26,29.90,10.0,North,11.5,17.3,N/A,,Clear,10,2013-06-20 22:55:00
5:15 PM,68.0,26.6,21,29.90,10.0,NE,12.7,-,N/A,,Clear,40,2013-06-20 23:15:00
5:35 PM,66.2,30.2,26,29.90,10.0,North,11.5,-,N/A,,Scattered Clouds,10,2013-06-20 23:35:00
5:55 PM,66.2,30.2,26,29.90,10.0,NNE,10.4,-,N/A,,Mostly Cloudy,20,2013-06-20 23:55:00
6:15 PM,64.4,30.2,28,29.90,10.0,North,11.5,-,N/A,,Partly Cloudy,360,2013-06-21 00:15:00
6:35 PM,64.4,30.2,28,29.91,10.0,North,9.2,-,N/A,,Clear,360,2013-06-21 00:35:00
7:15 PM,64.4,30.2,28,29.92,10.0,NNW,12.7,23.0,N/A,,Clear,340,2013-06-21 01:15:00
7:35 PM,64.4,30.2,28,29.93,10.0,NNW,19.6,25.3,N/A,,Clear,340,2013-06-21 01:35:00
7:55 PM,62.6,28.4,27,29.94,10.0,NNW,11.5,20.7,N/A,,Clear,340,2013-06-21 01:55:00
8:15 PM,62.6,30.2,30,29.95,10.0,NW,11.5,18.4,N/A,,Clear,320,2013-06-21 02:15:00
8:35 PM,62.6,30.2,30,29.96,10.0,NNW,9.2,17.3,N/A,,Clear,330,2013-06-21 02:35:00
8:55 PM,60.8,28.4,29,29.97,10.0,NNW,8.1,-,N/A,,Clear,330,2013-06-21 02:55:00
9:15 PM,60.8,28.4,29,29.97,10.0,WNW,10.4,17.3,N/A,,Clear,300,2013-06-21 03:15:00
9:35 PM,59.0,28.4,31,29.98,10.0,WNW,6.9,-,N/A,,Clear,300,2013-06-21 03:35:00
9:55 PM,59.0,28.4,31,30.00,10.0,WNW,9.2,-,N/A,,Clear,300,2013-06-21 03:55:00
10:15 PM,59.0,28.4,31,30.01,10.0,WNW,10.4,-,N/A,,Clear,300,2013-06-21 04:15:00
10:55 PM,57.2,28.4,33,30.01,10.0,WNW,9.2,-,N/A,,Clear,290,2013-06-21 04:55:00
11:15 PM,57.2,28.4,33,30.02,10.0,WNW,6.9,-,N/A,,Clear,290,2013-06-21 05:15:00
11:35 PM,55.4,28.4,36,30.02,10.0,WNW,9.2,-,N/A,,Clear,300,2013-06-21 05:35:00
11:55 PM,55.4,28.4,36,30.02,10.0,NW,10.4,-,N/A,,Clear,310,2013-06-21 05:55:00